Location: Bartshausen
(51.8454°N, 9.8167°E)
Time: 08:31:37
(UTC+00:00)

H-2A R/B - Pass Details

Date: 08 November 2025
Orbit: 728 x 830 km, 98.3° (Epoch: 11 December)

Event Time Altitude Azimuth Distance (km) Brightness Sun altitude
Rises 03:23:22 0° 11° (NNE) 3,229 5.5 -28.5°
Reaches altitude 10° 03:25:43 10° 7° (N) 2,285 4.6 -28.2°
Enters shadow 03:28:00 26° 357° (N) 1,441 3.4 -27.8°
